Weather History for Liberia, Costa Rica

Change the Weather History Date:

Thursday, October 25, 2012

  Actual Average Record
Temperature  
Mean Temperature 74 °F -  
Max Temperature 76 °F 85 °F - ()
Min Temperature 72 °F 72 °F - ()
Cooling Degree Days 9    
Growing Degree Days 24 (Base 50)    
Moisture  
Dew Point 72 °F    
Average Humidity 94    
Maximum Humidity 100    
Minimum Humidity 89    
Precipitation  
Precipitation 0.39 in - - ()
Sea Level Pressure  
Sea Level Pressure 29.85 in    
Wind  
Wind Speed 4 mph ()    
Max Wind Speed 6 mph    
Max Gust Speed -    
Visibility 5.3 miles    
Events Fog , Rain    
T = Trace of Precipitation, MM = Missing Value Source: Averaged Metar Reports

Daily Weather History Graph

Daily Weather History Graph

Search for Another Location

Airport:

Trip Planner

Search our weather history database for the weather conditions in past years. The results will help you decide how hot, cold, wet, or windy it might be!

Date:

Astronomy

Oct. 25, 2012 Rise Set
Actual Time 5:32 AM CST 5:20 PM CST
Civil Twilight 5:10 AM CST 5:41 PM CST
Nautical Twilight 4:45 AM CST 6:06 PM CST
Astronomical Twilight 4:20 AM CST 6:31 PM CST
Moon 2:32 PM CST (10/25) 2:07 AM CST (10/25)
Length of Visible Light 12h 31m
Length of Day
11h 48m
Waxing Gibbous, 85% of the Moon is Illuminated
Oct 25
Waxing Gibbous
Oct 29
Full
Nov 6
Last Quarter
Nov 13
New
Nov 20
First Quarter

Hourly Weather History & Observations

Time (CST) Temp. Dew Point Humidity Pressure Visibility Wind Dir Wind Speed Gust Speed Precip Events Conditions
6:00 AM 73 °F 72 °F 95% 29.85 in 4 mi ESE 4.6 mph - - Rain Light Rain
6:00 AM 73.4 °F 71.6 °F 94% 29.83 in 4.3 mi ESE 4.6 mph - N/A Rain Rain
6:15 AM 73.4 °F 71.6 °F 94% 29.84 in 3.1 mi ESE 5.8 mph - N/A Rain Rain
7:00 AM 73.4 °F 71.6 °F 94% 29.85 in 6.2 mi SE 5.8 mph - N/A Rain Light Rain
7:15 AM 73.4 °F 71.6 °F 94% 29.87 in 5.0 mi SE 5.8 mph - N/A Rain Light Rain
8:00 AM 73.4 °F 71.6 °F 94% 29.89 in 4.3 mi SE 4.6 mph - N/A Rain Rain
9:00 AM 73.4 °F 71.6 °F 94% 29.90 in 4.3 mi SSE 5.8 mph - N/A Rain Rain
10:00 AM 73.4 °F 73.4 °F 100% 29.89 in 5.0 mi SE 4.6 mph - N/A Rain Rain
11:00 AM 73.4 °F 71.6 °F 94% 29.87 in 5.6 mi SE 5.8 mph - N/A Rain Light Rain
12:00 PM 74 °F 72 °F 93% 29.88 in 6 mi SE 4.6 mph - - Rain Light Rain
12:00 PM 73.4 °F 71.6 °F 94% 29.86 in 6.2 mi SE 4.6 mph - N/A   Mostly Cloudy
1:00 PM 75.2 °F 73.4 °F 94% 29.84 in 6.2 mi SE 4.6 mph - N/A   Light Drizzle
2:00 PM 75.2 °F 71.6 °F 89% 29.81 in 6.2 mi ESE 4.6 mph - N/A Rain Light Rain
3:00 PM 76 °F 74 °F 91%  in 6 mi SE 4.6 mph - -   Clear
3:00 PM 75.2 °F 73.4 °F 94% 29.80 in 6.2 mi SE 4.6 mph - N/A Rain Light Rain
4:00 PM 73.4 °F 73.4 °F 100% 29.81 in 3.1 mi SE 5.8 mph - N/A   Drizzle
5:00 PM 73.4 °F 71.6 °F 94% 29.82 in 6.2 mi East 5.8 mph - N/A Fog , Rain Light Rain
6:00 PM 74 °F 72 °F 91% 29.85 in 9 mi East 4.6 mph - -   Overcast
6:00 PM 73.4 °F 71.6 °F 94% 29.83 in 6.2 mi East 4.6 mph - N/A   Scattered Clouds
7:00 PM 73.4 °F 73.4 °F 100% 29.85 in 3.1 mi Calm Calm - N/A Rain Light Rain
8:00 PM 73.4 °F 71.6 °F 94% 29.87 in 5.0 mi ESE 5.8 mph - N/A Rain Rain